SCP
0 0 0 0 0 0 0 0 0 0 -0 -0 0 0 0 0 0 0 0 0 0 0 0 1 1 1 1 1 1 0 1 0 0 0 0 0 0 0 0 0 0 -0 -0
0 0 0 0 0 0 0 0 0 0 0 0 0 0 0 0 0 0 0 0 0 0 1 1 1 1 1 1 1 1 1 1 0 0 0 0 -0 -0 0 0 0 0 -0
0 0 0 0 0 0 0 0 0 0 0 0 0 0 0 0 0 0 0 0 0 0 0 0 0 0 0 0 1 1 1 1 1 0 0 0 -0 0 0 0 0 0 0
0 0 0 0 0 0 0 0 0 0 0 0 0 0 0 0 0 0 0 0 0 0 0 1 1 1 1 1 1 1 1 1 1 0 0 -0 0 0 -0 0 0 0 0
0 0 1 1 1 0 0 0 0 0 0 0 0 0 0 0 0 0 0 0 0 0 0 0 0 0 0 0 0 0 0 0 0 0 0 -0 -0 -0 0 0 0 0 0
1 1 1 1 1 0 0 0 0 0 0 0 0 0 0 0 0 0 0 0 0 0 0 0 0 0 0 0 0 0 0 0 0 0 0 0 0 -0 0 -0 -0 0 0
1 2 1 2 1 0 0 0 0 0 0 0 0 0 -0 0 0 0 0 0 0 0 0 0 0 0 0 0 0 0 1 0 0 0 0 1 0 0 0 0 -0 0 0
2 3 2 2 1 1 0 0 0 0 0 0 0 0 0 0 0 0 0 0 0 0 0 0 0 0 0 0 0 0 1 1 0 0 0 0 0 0 0 0 0 0 0
2 3 2 1 1 1 1 0 1 0 0 0 0 0 0 0 0 0 0 0 0 0 0 0 0 0 0 0 0 0 0 0 0 0 1 1 1 0 0 0 0 0 0
2 3 3 2 1 1 1 1 0 0 0 0 0 0 0 0 0 0 0 0 0 0 0 0 0 0 0 0 0 0 0 0 0 0 0 1 1 1 1 1 0 0 0
2 3 2 2 1 1 1 0 0 0 0 0 0 0 0 0 0 0 0 0 0 0 0 0 0 0 0 0 0 0 0 0 0 0 0 0 0 0 1 1 1 0 0
2 2 2 2 1 1 0 0 0 0 0 0 0 0 0 0 0 0 0 0 0 0 0 0 0 0 0 0 0 0 0 0 0 0 0 0 0 0 0 0 0 0 0
1 2 2 2 1 0 0 0 0 0 0 0 0 0 0 0 0 0 0 0 0 0 0 0 0 0 0 0 0 0 0 0 -0 0 0 0 0 0 0 0 0 0 0
0 0 1 0 0 0 0 0 0 0 0 0 0 0 0 0 0 0 0 0 0 0 0 0 0 0 0 0 0 0 0 0 -0 -0 0 0 0 0 0 0 0 0 0
0 0 0 0 0 0 0 0 0 0 0 0 0 0 0 0 0 0 0 0 0 0 0 0 0 0 0 0 0 0 0 0 -0 -0 0 0 0 0 0 0 0 0 0
0 0 0 0 0 0 0 0 0 0 0 0 0 0 0 0 0 0 0 0 0 0 0 0 0 0 0 0 0 0 0 0 0 0 0 0 0 0 0 0 0 0 0
0 0 0 0 0 0 0 0 0 0 0 0 0 0 0 0 0 0 0 0 0 0 0 0 0 0 0 0 0 0 0 0 0 0 0 0 0 0 0 0 0 0 0
0 0 0 0 0 0 0 0 0 0 0 0 0 0 0 0 0 0 0 0 0 0 0 0 0 0 0 0 0 0 0 0 0 0 0 0 0 0 0 0 0 0 0
0 0 0 0 0 0 0 0 0 0 0 0 0 0 0 0 0 0 0 0 0 0 0 0 0 0 0 0 0 0 0 0 0 0 0 0 0 0 0 0 0 0 0
0 0 0 0 0 0 0 0 0 0 0 0 0 0 0 0 0 0 0 0 0 0 0 0 0 0 0 0 0 0 0 0 0 0 0 0 0 0 0 0 0 0 0
0 0 0 0 0 0 0 0 0 0 0 0 0 0 0 0 0 0 0 0 0 0 0 0 0 0 0 0 0 0 0 0 0 0 0 0 0 0 -0 -0 -0 0 0
0 0 0 0 0 0 0 0 0 0 0 0 0 0 0 0 0 0 0 0 0 0 0 0 0 0 0 0 0 0 0 0 0 0 0 0 0 0 -0 -0 -0 0 0
0 0 0 0 0 0 0 0 0 0 0 0 0 0 0 0 0 0 0 0 0 0 0 0 0 0 0 0 0 0 0 0 0 0 0 0 0 0 0 -0 0 0 0
0 0 0 0 0 0 0 0 0 0 0 0 0 0 0 0 0 0 0 0 0 0 0 0 0 0 0 0 0 0 0 0 0 0 0 0 0 0 0 0 0 0 0
0 0 0 0 0 0 0 0 0 0 0 0 0 0 0 0 0 0 0 0 0 0 0 0 0 0 0 0 0 0 0 0 0 0 0 0 0 0 0 0 0 0 0
0 0 0 0 0 0 0 0 0 0 0 0 0 0 0 0 0 0 0 0 0 0 0 0 0 0 0 0 0 0 0 0 0 0 0 0 0 0 0 0 0 0 0
Wind_Speed_500mb
37 35 30 22 18 14 5 2 2 6 6 10 10 10 14 14 13 13 15 15 23 24 26 30 32 36 40 39 37 37 39 38 37 36 34 39 30 31 29 26 27 24 22
35 34 30 23 16 16 9 14 20 19 18 20 18 13 21 21 19 27 27 27 26 32 30 35 35 34 33 35 32 37 41 41 44 39 37 43 38 35 36 31 30 30 28
34 33 29 25 13 23 22 22 22 24 23 17 11 11 22 25 21 22 24 23 24 30 35 40 43 43 42 40 36 29 35 39 40 44 46 48 44 38 40 37 36 35 34
21 30 34 28 23 30 32 34 32 32 34 25 28 17 26 22 20 17 23 30 36 38 43 42 46 47 47 47 44 41 38 33 34 41 52 47 47 46 42 40 41 40 40
26 26 27 33 39 39 38 37 41 43 45 45 41 24 20 30 25 29 33 34 34 39 46 48 48 47 50 49 44 45 46 37 38 32 44 50 48 46 47 47 44 43 43
37 39 34 36 35 44 47 48 42 43 48 32 27 28 34 40 35 35 32 32 31 37 42 45 47 41 47 54 51 60 42 34 37 31 36 42 44 43 46 50 50 47 48
51 50 45 41 40 39 48 53 41 40 31 26 29 31 48 38 34 35 25 26 31 28 28 34 29 28 25 29 28 21 28 33 36 28 30 36 38 42 42 48 52 52 54
53 52 49 42 41 43 44 45 41 35 31 27 29 43 37 27 24 13 22 23 23 26 22 29 27 27 25 24 26 19 28 26 35 29 24 28 33 31 40 47 50 54 55
54 51 47 44 44 38 45 45 42 45 44 38 43 36 15 18 21 25 26 24 22 16 13 15 23 18 18 16 23 26 24 26 30 32 42 31 34 36 37 43 49 52 52
57 48 50 44 43 37 41 47 46 49 51 46 38 40 40 36 23 20 26 30 21 20 13 10 16 21 16 19 21 25 24 29 27 35 33 34 30 34 31 35 45 49 49
56 50 49 46 47 48 45 50 52 49 54 46 41 36 34 35 35 34 33 25 24 22 17 15 19 28 26 25 24 26 25 28 31 35 35 38 40 38 40 39 42 48 51
55 55 50 49 50 48 46 53 52 57 58 54 44 40 38 32 28 28 26 24 20 22 23 20 18 20 28 29 30 28 33 34 35 40 38 35 38 44 48 47 51 51 52
48 52 52 50 52 50 54 59 55 55 52 48 45 41 36 34 34 34 34 32 30 28 28 29 24 24 20 29 35 38 39 44 47 43 44 40 38 41 35 48 49 49 45
46 48 51 53 59 58 57 59 55 50 51 46 42 39 37 36 38 39 40 39 44 41 39 37 38 35 34 31 34 39 42 47 53 58 56 56 54 51 46 49 51 55 59
46 57 58 56 45 43 44 43 45 46 45 44 45 46 46 45 45 47 48 49 51 49 51 46 50 48 39 38 42 43 38 55 64 57 42 52 53 44 41 48 56 61 62
19 31 35 42 44 45 43 40 41 41 45 48 50 52 54 56 55 57 58 62 61 62 65 58 55 56 53 56 46 49 50 63 50 44 51 59 55 52 56 55 58 58 53
28 19 21 29 47 50 49 43 43 45 49 52 55 60 63 63 65 66 67 66 69 70 74 73 65 63 67 66 57 62 65 53 52 53 53 64 56 51 54 50 48 50 51
23 29 35 34 31 33 41 46 51 51 49 55 56 59 65 63 69 75 75 76 77 77 79 86 76 71 71 67 66 64 61 55 53 56 61 69 55 48 52 50 44 45 45
35 35 36 37 38 41 47 50 53 56 61 62 61 62 60 56 59 66 71 74 75 77 80 86 90 80 78 73 74 73 66 63 65 71 70 50 47 34 41 42 45 48 46
45 47 46 45 44 45 48 50 53 57 60 64 66 67 68 67 67 66 62 63 67 71 73 74 78 78 76 73 74 74 76 68 64 54 50 51 58 54 42 42 45 45 47
44 48 54 56 55 55 57 59 61 65 70 73 72 74 78 81 82 80 77 76 72 69 65 64 67 63 62 63 66 66 65 59 56 49 47 57 54 72 72 59 54 54 47
56 57 58 61 63 65 65 67 70 75 80 82 84 81 78 75 73 73 71 71 71 70 74 75 75 73 72 69 67 61 58 58 59 57 54 51 61 66 74 77 82 68 53
67 70 73 73 74 72 73 75 77 78 78 80 81 83 86 86 87 88 88 87 85 85 83 81 89 94 95 85 65 68 78 75 73 65 53 57 64 80 76 64 59 51 48
82 83 85 86 88 88 87 87 87 89 94 95 94 93 94 94 90 85 83 84 84 85 85 84 81 80 82 78 81 69 62 62 66 74 73 73 80 76 62 51 42 35 43
91 94 95 94 91 89 81 78 77 78 74 66 63 62 62 61 57 55 61 67 69 70 67 69 70 73 79 84 79 75 83 76 70 70 67 66 67 61 55 42 38 26 31
78 71 68 64 63 59 48 43 38 42 47 52 55 59 59 52 48 47 45 44 49 54 51 51 53 51 50 48 47 51 60 73 74 55 49 45 50 47 37 29 21 23 26
Wind_Direction_500mb
209 208 206 203 210 198 182 304 262 264 260 259 266 277 343 337 326 317 312 326 333 331 325 323 311 304 295 295 301 303 288 281 277 281 259 258 251 261 251 250 261 261 250
218 222 222 213 214 214 232 236 259 254 272 257 256 329 328 321 326 310 317 319 315 311 311 312 312 316 315 294 298 294 292 284 277 274 283 268 263 257 257 250 252 259 253
226 230 231 227 235 243 237 244 251 250 244 253 266 274 296 303 308 321 324 317 308 304 298 299 299 293 286 280 276 278 279 286 287 274 268 274 264 261 255 254 252 255 256
219 232 241 237 232 245 245 246 253 256 246 258 263 254 283 287 289 312 300 299 297 295 289 288 288 288 290 285 283 280 275 263 283 286 272 272 268 261 260 255 256 258 258
233 243 247 241 229 236 243 249 251 249 262 269 259 251 267 274 276 289 296 297 298 294 295 296 300 299 292 294 294 290 276 264 277 274 276 268 265 262 261 259 257 257 259
253 241 239 243 246 241 239 245 250 248 257 241 261 263 271 268 272 285 287 295 299 302 301 303 303 305 292 297 278 300 269 283 280 274 278 274 266 263 259 259 260 259 259
250 247 240 255 252 257 252 250 256 254 244 241 252 278 268 265 266 274 267 287 299 303 310 318 319 314 290 294 306 299 262 276 275 279 277 273 265 259 260 262 262 260 260
246 249 250 248 263 262 254 247 245 239 241 241 256 260 272 270 267 234 278 294 318 316 312 316 314 327 341 312 307 292 286 282 273 267 273 289 290 282 265 264 265 262 259
247 254 253 252 251 263 243 235 244 237 246 243 246 251 231 245 266 285 301 312 326 317 325 322 333 325 330 325 309 305 317 301 277 272 281 269 288 284 278 271 269 264 262
246 251 253 253 255 266 244 232 234 249 245 244 251 245 247 254 262 283 287 303 303 320 323 284 327 339 349 354 341 318 312 308 308 275 260 270 274 283 279 277 274 269 262
246 251 252 255 257 263 258 241 236 241 246 252 252 250 246 248 250 254 269 277 286 300 306 278 300 312 320 326 331 327 314 310 317 302 293 283 274 271 281 285 280 273 265
244 249 246 250 258 259 260 242 249 244 250 258 252 258 257 253 254 255 247 270 267 283 292 296 303 295 300 313 316 313 314 319 317 308 308 301 290 282 278 282 280 280 274
241 241 245 249 252 262 262 256 247 245 248 250 258 258 258 264 268 270 272 277 275 273 272 286 288 300 299 305 302 306 308 312 316 314 313 311 295 284 283 278 276 281 276
246 249 249 255 261 263 255 252 248 243 241 246 249 253 259 261 264 270 274 278 274 273 270 271 280 285 279 304 293 300 299 305 306 304 302 303 301 292 278 273 271 278 282
244 248 251 255 253 256 262 257 247 245 246 251 254 258 262 265 268 271 275 277 277 275 275 275 271 280 279 290 283 280 272 293 295 301 302 305 299 297 298 278 276 276 276
267 259 252 239 243 246 247 254 255 258 263 264 268 268 271 274 276 277 279 280 282 283 276 278 280 282 281 285 279 255 281 295 291 285 298 316 298 283 287 285 275 278 282
272 287 285 270 252 246 250 253 257 264 266 270 271 274 273 273 275 275 275 278 279 279 277 280 277 280 280 282 278 269 281 279 281 277 280 306 292 289 293 287 282 284 279
299 282 273 274 274 272 257 266 261 263 267 265 266 267 270 274 274 273 271 274 275 275 277 281 281 278 278 279 280 281 282 278 276 264 279 297 290 293 287 286 287 287 284
311 308 302 296 284 273 270 270 270 270 270 271 271 272 275 277 277 275 273 271 271 273 274 277 279 280 277 276 279 282 281 273 269 275 283 270 280 300 289 288 293 285 289
305 302 300 300 299 295 290 286 283 281 279 278 278 278 278 277 277 277 278 278 277 274 273 272 274 276 277 277 278 278 279 280 283 282 274 255 267 277 290 301 300 291 287
297 297 298 298 299 297 295 294 292 291 289 286 284 283 282 281 280 280 280 276 273 274 276 276 275 276 276 275 273 278 278 281 283 273 261 254 264 273 276 285 299 296 293
302 299 296 295 296 293 291 289 287 287 286 289 289 287 286 284 284 283 282 282 281 277 274 275 275 274 275 274 273 272 274 274 272 275 253 249 264 265 276 284 287 292 293
304 303 301 298 293 292 290 289 288 288 285 281 281 283 283 281 281 281 280 278 276 275 272 272 272 272 273 270 273 272 270 267 266 264 258 261 268 278 284 292 288 278 287
302 301 299 298 296 294 292 290 287 284 284 284 285 285 284 284 284 285 285 282 280 277 275 274 274 275 274 271 264 263 264 264 263 260 260 265 271 278 288 291 285 275 284
301 300 298 296 295 294 296 291 285 284 285 287 286 286 287 289 290 289 285 281 279 278 278 275 274 274 270 264 262 264 256 258 264 265 262 262 268 275 285 277 279 266 287
306 306 306 307 306 306 308 303 297 292 291 293 294 295 295 292 289 291 287 285 282 281 286 284 279 274 273 263 254 249 256 256 259 260 258 249 261 268 276 283 264 257 271
Wind_Speed_850mb
37 35 30 22 18 14 5 2 2 6 6 10 10 10 14 14 13 13 15 15 23 24 26 30 32 36 40 39 37 37 39 38 37 36 34 39 30 31 29 26 27 24 22
35 34 30 23 16 16 9 14 20 19 18 20 18 13 21 21 19 27 27 27 26 32 30 35 35 34 33 35 32 37 41 41 44 39 37 43 38 35 36 31 30 30 28
34 33 29 25 13 23 22 22 22 24 23 17 11 11 22 25 21 22 24 23 24 30 35 40 43 43 42 40 36 29 35 39 40 44 46 48 44 38 40 37 36 35 34
21 30 34 28 23 30 32 34 32 32 34 25 28 17 26 22 20 17 23 30 36 38 43 42 46 47 47 47 44 41 38 33 34 41 52 47 47 46 42 40 41 40 40
26 26 27 33 39 39 38 37 41 43 45 45 41 24 20 30 25 29 33 34 34 39 46 48 48 47 50 49 44 45 46 37 38 32 44 50 48 46 47 47 44 43 43
37 39 34 36 35 44 47 48 42 43 48 32 27 28 34 40 35 35 32 32 31 37 42 45 47 41 47 54 51 60 42 34 37 31 36 42 44 43 46 50 50 47 48
51 50 45 41 40 39 48 53 41 40 31 26 29 31 48 38 34 35 25 26 31 28 28 34 29 28 25 29 28 21 28 33 36 28 30 36 38 42 42 48 52 52 54
53 52 49 42 41 43 44 45 41 35 31 27 29 43 37 27 24 13 22 23 23 26 22 29 27 27 25 24 26 19 28 26 35 29 24 28 33 31 40 47 50 54 55
54 51 47 44 44 38 45 45 42 45 44 38 43 36 15 18 21 25 26 24 22 16 13 15 23 18 18 16 23 26 24 26 30 32 42 31 34 36 37 43 49 52 52
57 48 50 44 43 37 41 47 46 49 51 46 38 40 40 36 23 20 26 30 21 20 13 10 16 21 16 19 21 25 24 29 27 35 33 34 30 34 31 35 45 49 49
56 50 49 46 47 48 45 50 52 49 54 46 41 36 34 35 35 34 33 25 24 22 17 15 19 28 26 25 24 26 25 28 31 35 35 38 40 38 40 39 42 48 51
55 55 50 49 50 48 46 53 52 57 58 54 44 40 38 32 28 28 26 24 20 22 23 20 18 20 28 29 30 28 33 34 35 40 38 35 38 44 48 47 51 51 52
48 52 52 50 52 50 54 59 55 55 52 48 45 41 36 34 34 34 34 32 30 28 28 29 24 24 20 29 35 38 39 44 47 43 44 40 38 41 35 48 49 49 45
46 48 51 53 59 58 57 59 55 50 51 46 42 39 37 36 38 39 40 39 44 41 39 37 38 35 34 31 34 39 42 47 53 58 56 56 54 51 46 49 51 55 59
46 57 58 56 45 43 44 43 45 46 45 44 45 46 46 45 45 47 48 49 51 49 51 46 50 48 39 38 42 43 38 55 64 57 42 52 53 44 41 48 56 61 62
19 31 35 42 44 45 43 40 41 41 45 48 50 52 54 56 55 57 58 62 61 62 65 58 55 56 53 56 46 49 50 63 50 44 51 59 55 52 56 55 58 58 53
28 19 21 29 47 50 49 43 43 45 49 52 55 60 63 63 65 66 67 66 69 70 74 73 65 63 67 66 57 62 65 53 52 53 53 64 56 51 54 50 48 50 51
23 29 35 34 31 33 41 46 51 51 49 55 56 59 65 63 69 75 75 76 77 77 79 86 76 71 71 67 66 64 61 55 53 56 61 69 55 48 52 50 44 45 45
35 35 36 37 38 41 47 50 53 56 61 62 61 62 60 56 59 66 71 74 75 77 80 86 90 80 78 73 74 73 66 63 65 71 70 50 47 34 41 42 45 48 46
45 47 46 45 44 45 48 50 53 57 60 64 66 67 68 67 67 66 62 63 67 71 73 74 78 78 76 73 74 74 76 68 64 54 50 51 58 54 42 42 45 45 47
44 48 54 56 55 55 57 59 61 65 70 73 72 74 78 81 82 80 77 76 72 69 65 64 67 63 62 63 66 66 65 59 56 49 47 57 54 72 72 59 54 54 47
56 57 58 61 63 65 65 67 70 75 80 82 84 81 78 75 73 73 71 71 71 70 74 75 75 73 72 69 67 61 58 58 59 57 54 51 61 66 74 77 82 68 53
67 70 73 73 74 72 73 75 77 78 78 80 81 83 86 86 87 88 88 87 85 85 83 81 89 94 95 85 65 68 78 75 73 65 53 57 64 80 76 64 59 51 48
82 83 85 86 88 88 87 87 87 89 94 95 94 93 94 94 90 85 83 84 84 85 85 84 81 80 82 78 81 69 62 62 66 74 73 73 80 76 62 51 42 35 43
91 94 95 94 91 89 81 78 77 78 74 66 63 62 62 61 57 55 61 67 69 70 67 69 70 73 79 84 79 75 83 76 70 70 67 66 67 61 55 42 38 26 31
78 71 68 64 63 59 48 43 38 42 47 52 55 59 59 52 48 47 45 44 49 54 51 51 53 51 50 48 47 51 60 73 74 55 49 45 50 47 37 29 21 23 26
Wind_Direction_850mb
209 208 206 203 210 198 182 304 262 264 260 259 266 277 343 337 326 317 312 326 333 331 325 323 311 304 295 295 301 303 288 281 277 281 259 258 251 261 251 250 261 261 250
218 222 222 213 214 214 232 236 259 254 272 257 256 329 328 321 326 310 317 319 315 311 311 312 312 316 315 294 298 294 292 284 277 274 283 268 263 257 257 250 252 259 253
226 230 231 227 235 243 237 244 251 250 244 253 266 274 296 303 308 321 324 317 308 304 298 299 299 293 286 280 276 278 279 286 287 274 268 274 264 261 255 254 252 255 256
219 232 241 237 232 245 245 246 253 256 246 258 263 254 283 287 289 312 300 299 297 295 289 288 288 288 290 285 283 280 275 263 283 286 272 272 268 261 260 255 256 258 258
233 243 247 241 229 236 243 249 251 249 262 269 259 251 267 274 276 289 296 297 298 294 295 296 300 299 292 294 294 290 276 264 277 274 276 268 265 262 261 259 257 257 259
253 241 239 243 246 241 239 245 250 248 257 241 261 263 271 268 272 285 287 295 299 302 301 303 303 305 292 297 278 300 269 283 280 274 278 274 266 263 259 259 260 259 259
250 247 240 255 252 257 252 250 256 254 244 241 252 278 268 265 266 274 267 287 299 303 310 318 319 314 290 294 306 299 262 276 275 279 277 273 265 259 260 262 262 260 260
246 249 250 248 263 262 254 247 245 239 241 241 256 260 272 270 267 234 278 294 318 316 312 316 314 327 341 312 307 292 286 282 273 267 273 289 290 282 265 264 265 262 259
247 254 253 252 251 263 243 235 244 237 246 243 246 251 231 245 266 285 301 312 326 317 325 322 333 325 330 325 309 305 317 301 277 272 281 269 288 284 278 271 269 264 262
246 251 253 253 255 266 244 232 234 249 245 244 251 245 247 254 262 283 287 303 303 320 323 284 327 339 349 354 341 318 312 308 308 275 260 270 274 283 279 277 274 269 262
246 251 252 255 257 263 258 241 236 241 246 252 252 250 246 248 250 254 269 277 286 300 306 278 300 312 320 326 331 327 314 310 317 302 293 283 274 271 281 285 280 273 265
244 249 246 250 258 259 260 242 249 244 250 258 252 258 257 253 254 255 247 270 267 283 292 296 303 295 300 313 316 313 314 319 317 308 308 301 290 282 278 282 280 280 274
241 241 245 249 252 262 262 256 247 245 248 250 258 258 258 264 268 270 272 277 275 273 272 286 288 300 299 305 302 306 308 312 316 314 313 311 295 284 283 278 276 281 276
246 249 249 255 261 263 255 252 248 243 241 246 249 253 259 261 264 270 274 278 274 273 270 271 280 285 279 304 293 300 299 305 306 304 302 303 301 292 278 273 271 278 282
244 248 251 255 253 256 262 257 247 245 246 251 254 258 262 265 268 271 275 277 277 275 275 275 271 280 279 290 283 280 272 293 295 301 302 305 299 297 298 278 276 276 276
267 259 252 239 243 246 247 254 255 258 263 264 268 268 271 274 276 277 279 280 282 283 276 278 280 282 281 285 279 255 281 295 291 285 298 316 298 283 287 285 275 278 282
272 287 285 270 252 246 250 253 257 264 266 270 271 274 273 273 275 275 275 278 279 279 277 280 277 280 280 282 278 269 281 279 281 277 280 306 292 289 293 287 282 284 279
299 282 273 274 274 272 257 266 261 263 267 265 266 267 270 274 274 273 271 274 275 275 277 281 281 278 278 279 280 281 282 278 276 264 279 297 290 293 287 286 287 287 284
311 308 302 296 284 273 270 270 270 270 270 271 271 272 275 277 277 275 273 271 271 273 274 277 279 280 277 276 279 282 281 273 269 275 283 270 280 300 289 288 293 285 289
305 302 300 300 299 295 290 286 283 281 279 278 278 278 278 277 277 277 278 278 277 274 273 272 274 276 277 277 278 278 279 280 283 282 274 255 267 277 290 301 300 291 287
297 297 298 298 299 297 295 294 292 291 289 286 284 283 282 281 280 280 280 276 273 274 276 276 275 276 276 275 273 278 278 281 283 273 261 254 264 273 276 285 299 296 293
302 299 296 295 296 293 291 289 287 287 286 289 289 287 286 284 284 283 282 282 281 277 274 275 275 274 275 274 273 272 274 274 272 275 253 249 264 265 276 284 287 292 293
304 303 301 298 293 292 290 289 288 288 285 281 281 283 283 281 281 281 280 278 276 275 272 272 272 272 273 270 273 272 270 267 266 264 258 261 268 278 284 292 288 278 287
302 301 299 298 296 294 292 290 287 284 284 284 285 285 284 284 284 285 285 282 280 277 275 274 274 275 274 271 264 263 264 264 263 260 260 265 271 278 288 291 285 275 284
301 300 298 296 295 294 296 291 285 284 285 287 286 286 287 289 290 289 285 281 279 278 278 275 274 274 270 264 262 264 256 258 264 265 262 262 268 275 285 277 279 266 287
306 306 306 307 306 306 308 303 297 292 291 293 294 295 295 292 289 291 287 285 282 281 286 284 279 274 273 263 254 249 256 256 259 260 258 249 261 268 276 283 264 257 271